TimeEDT,TemperatureF,Dew PointF,Humidity,Sea Level PressureIn,VisibilityMPH,Wind Direction,Wind SpeedMPH,Gust SpeedMPH,PrecipitationIn,Events,Conditions,WindDirDegrees,DateUTC
12:51 AM,52.0,37.0,57,29.90,10.0,SE,3.5,-,N/A,,Scattered Clouds,140,2013-05-15 04:51:00
1:51 AM,53.1,37.9,57,29.89,10.0,ESE,3.5,-,N/A,,Mostly Cloudy,120,2013-05-15 05:51:00
2:51 AM,53.1,39.0,59,29.86,10.0,Calm,Calm,-,N/A,,Mostly Cloudy,0,2013-05-15 06:51:00
3:51 AM,53.1,39.0,59,29.86,10.0,South,3.5,-,N/A,,Mostly Cloudy,180,2013-05-15 07:51:00
4:51 AM,54.0,43.0,66,29.86,10.0,Calm,Calm,-,0.00,,Overcast,0,2013-05-15 08:51:00
5:51 AM,55.0,46.0,72,29.83,10.0,South,3.5,-,N/A,,Overcast,170,2013-05-15 09:51:00
6:51 AM,61.0,50.0,67,29.84,10.0,South,3.5,-,N/A,,Overcast,190,2013-05-15 10:51:00
7:51 AM,64.0,52.0,65,29.84,10.0,South,4.6,-,N/A,,Overcast,180,2013-05-15 11:51:00
8:51 AM,66.0,54.0,65,29.81,10.0,SSW,12.7,24.2,0.00,,Mostly Cloudy,210,2013-05-15 12:51:00
9:51 AM,71.1,55.0,57,29.80,10.0,SW,12.7,25.3,N/A,,Mostly Cloudy,220,2013-05-15 13:51:00
10:51 AM,70.0,55.0,59,29.81,10.0,SW,13.8,27.6,0.00,Thunderstorm,Thunderstorm,230,2013-05-15 14:51:00
11:14 AM,71.6,55.4,57,29.82,10.0,SW,9.2,19.6,N/A,,Overcast,230,2013-05-15 15:14:00
11:51 AM,73.0,55.9,55,29.80,10.0,SW,12.7,19.6,N/A,,Mostly Cloudy,230,2013-05-15 15:51:00
12:51 PM,77.0,57.0,50,29.77,10.0,SW,24.2,31.1,0.00,,Mostly Cloudy,220,2013-05-15 16:51:00
1:51 PM,81.0,57.0,44,29.76,10.0,WSW,17.3,28.8,0.00,,Mostly Cloudy,240,2013-05-15 17:51:00
2:51 PM,82.9,55.9,39,29.75,10.0,WSW,17.3,28.8,N/A,,Mostly Cloudy,240,2013-05-15 18:51:00
3:51 PM,84.0,57.0,40,29.75,10.0,West,13.8,21.9,0.00,,Mostly Cloudy,270,2013-05-15 19:51:00
4:51 PM,84.0,57.0,40,29.75,10.0,West,12.7,21.9,N/A,,Mostly Cloudy,260,2013-05-15 20:51:00
5:51 PM,84.0,55.0,37,29.74,10.0,West,19.6,27.6,N/A,,Scattered Clouds,260,2013-05-15 21:51:00
6:51 PM,82.9,55.0,38,29.75,10.0,West,16.1,25.3,N/A,,Scattered Clouds,270,2013-05-15 22:51:00
7:51 PM,81.0,55.9,42,29.75,10.0,West,9.2,-,N/A,,Mostly Cloudy,270,2013-05-15 23:51:00
8:51 PM,77.0,55.9,48,29.77,10.0,West,5.8,-,N/A,,Scattered Clouds,270,2013-05-16 00:51:00
9:51 PM,75.0,55.9,51,29.79,10.0,SW,4.6,-,N/A,,Overcast,220,2013-05-16 01:51:00
10:51 PM,75.9,55.9,50,29.80,10.0,Variable,6.9,-,N/A,,Mostly Cloudy,0,2013-05-16 02:51:00
11:51 PM,70.0,55.0,59,29.80,10.0,WNW,5.8,-,N/A,,Mostly Cloudy,290,2013-05-16 03:51:00